TimeCST,TemperatureF,Dew PointF,Humidity,Sea Level PressureIn,VisibilityMPH,Wind Direction,Wind SpeedMPH,Gust SpeedMPH,PrecipitationIn,Events,Conditions,WindDirDegrees,DateUTC
12:53 AM,25.0,18.0,75,30.31,10.0,North,6.9,-,N/A,,Overcast,360,2014-03-04 06:53:00
1:53 AM,25.0,18.0,75,30.30,10.0,North,5.8,-,N/A,,Overcast,10,2014-03-04 07:53:00
2:53 AM,24.1,17.1,75,30.29,10.0,North,4.6,-,N/A,,Overcast,360,2014-03-04 08:53:00
3:53 AM,24.1,18.0,77,30.25,10.0,North,6.9,-,N/A,,Overcast,10,2014-03-04 09:53:00
4:53 AM,24.1,18.0,77,30.22,10.0,NE,9.2,-,N/A,,Overcast,40,2014-03-04 10:53:00
5:40 AM,24.8,19.4,80,30.23,10.0,NNE,5.8,-,N/A,,Overcast,30,2014-03-04 11:40:00
5:53 AM,24.1,19.0,81,30.25,10.0,NNE,4.6,-,N/A,,Overcast,30,2014-03-04 11:53:00
6:33 AM,24.8,19.4,80,30.25,10.0,NNE,4.6,-,N/A,,Overcast,30,2014-03-04 12:33:00
6:53 AM,25.0,19.0,78,30.26,10.0,NNE,5.8,-,N/A,,Overcast,20,2014-03-04 12:53:00
7:53 AM,25.0,19.0,78,30.28,10.0,NE,4.6,-,N/A,,Overcast,50,2014-03-04 13:53:00
8:53 AM,26.1,19.9,78,30.28,10.0,North,3.5,-,N/A,,Overcast,10,2014-03-04 14:53:00
9:53 AM,27.0,21.0,78,30.29,10.0,NE,3.5,-,N/A,,Overcast,50,2014-03-04 15:53:00
10:39 AM,28.4,21.2,74,30.29,10.0,North,3.5,-,N/A,,Overcast,10,2014-03-04 16:39:00
10:53 AM,28.0,21.0,75,30.29,10.0,East,3.5,-,N/A,,Overcast,90,2014-03-04 16:53:00
11:04 AM,28.4,21.2,74,30.29,1.2,Variable,3.5,-,N/A,,Haze,0,2014-03-04 17:04:00
11:33 AM,28.4,21.2,74,30.27,10.0,ENE,5.8,-,N/A,,Overcast,70,2014-03-04 17:33:00
11:53 AM,30.0,21.9,72,30.26,10.0,ENE,8.1,-,N/A,,Overcast,60,2014-03-04 17:53:00
12:53 PM,32.0,24.1,73,30.23,10.0,ENE,8.1,-,N/A,,Mostly Cloudy,70,2014-03-04 18:53:00
1:00 PM,32.0,23.0,69,30.23,10.0,ENE,9.2,-,N/A,,Scattered Clouds,60,2014-03-04 19:00:00
1:53 PM,33.1,25.0,72,30.20,10.0,ENE,10.4,-,N/A,,Partly Cloudy,60,2014-03-04 19:53:00
2:53 PM,32.0,24.1,73,30.18,10.0,ENE,8.1,-,N/A,,Clear,70,2014-03-04 20:53:00
3:53 PM,35.1,25.0,67,30.17,10.0,East,4.6,-,N/A,,Clear,80,2014-03-04 21:53:00
4:53 PM,34.0,25.0,70,30.15,10.0,East,6.9,-,N/A,,Clear,90,2014-03-04 22:53:00
5:53 PM,33.1,26.1,75,30.16,10.0,East,4.6,-,N/A,,Clear,90,2014-03-04 23:53:00
6:53 PM,33.1,26.1,75,30.18,10.0,NE,4.6,-,N/A,,Clear,50,2014-03-05 00:53:00
7:53 PM,33.1,26.1,75,30.17,10.0,ENE,4.6,-,N/A,,Clear,70,2014-03-05 01:53:00
8:53 PM,32.0,26.1,79,30.16,10.0,East,6.9,-,N/A,,Clear,80,2014-03-05 02:53:00
9:53 PM,32.0,26.1,79,30.18,10.0,Calm,Calm,-,N/A,,Clear,0,2014-03-05 03:53:00
10:53 PM,30.9,26.1,82,30.17,10.0,ENE,4.6,-,N/A,,Scattered Clouds,60,2014-03-05 04:53:00
11:53 PM,30.9,26.1,82,30.15,9.0,East,4.6,-,N/A,,Mostly Cloudy,80,2014-03-05 05:53:00